Time,TemperatureF,DewpointF,PressureIn,WindDirection,WindDirectionDegrees,WindSpeedMPH,WindSpeedGustMPH,Humidity,HourlyPrecipIn,Conditions,Clouds,dailyrainin,SoftwareType,DateUTC
2013-09-07 00:01:00,64.8,46.8,17.73,ESE,105,0.0,0.0,52,0.00,,,0.00,meteohub,2013-09-07 04:01:00,
2013-09-07 00:02:00,64.8,46.8,17.73,ESE,105,0.0,0.0,52,0.00,,,0.00,meteohub,2013-09-07 04:02:00,
2013-09-07 00:05:00,64.8,46.8,17.73,ESE,105,0.0,0.0,52,0.00,,,0.00,meteohub,2013-09-07 04:05:00,
2013-09-07 00:10:00,64.6,47.1,17.73,ESE,105,0.0,0.0,53,0.00,,,0.00,meteohub,2013-09-07 04:10:00,
2013-09-07 00:15:00,64.4,46.9,17.73,ESE,105,0.0,0.0,53,0.00,,,0.00,meteohub,2013-09-07 04:15:00,
2013-09-07 00:20:00,64.2,47.3,17.73,ESE,105,0.0,0.0,54,0.00,,,0.00,meteohub,2013-09-07 04:20:00,
2013-09-07 00:25:00,64.2,47.3,17.73,ESE,105,0.0,0.0,54,0.00,,,0.00,meteohub,2013-09-07 04:25:00,
2013-09-07 00:30:00,64.0,47.5,17.73,ESE,105,0.0,0.0,55,0.00,,,0.00,meteohub,2013-09-07 04:30:00,
2013-09-07 00:35:00,63.9,47.3,17.73,ESE,105,0.0,0.0,55,0.00,,,0.00,meteohub,2013-09-07 04:35:00,
2013-09-07 00:40:00,63.9,47.8,17.73,ESE,105,0.0,0.0,56,0.00,,,0.00,meteohub,2013-09-07 04:40:00,
2013-09-07 00:45:00,63.7,47.7,17.73,ESE,105,0.0,0.0,56,0.00,,,0.00,meteohub,2013-09-07 04:45:00,
2013-09-07 00:50:00,63.5,48.0,17.73,ESE,105,0.0,0.0,57,0.00,,,0.00,meteohub,2013-09-07 04:50:00,
2013-09-07 00:55:00,63.5,48.0,17.73,ESE,105,0.0,0.0,57,0.00,,,0.00,meteohub,2013-09-07 04:55:00,
2013-09-07 01:01:00,63.5,48.4,17.73,ESE,105,0.0,0.0,58,0.00,,,0.00,meteohub,2013-09-07 05:01:00,
2013-09-07 01:06:00,63.3,48.4,17.73,ESE,105,0.0,0.0,58,0.00,,,0.00,meteohub,2013-09-07 05:06:00,
2013-09-07 01:11:00,63.3,48.4,17.73,ESE,105,0.0,0.0,58,0.00,,,0.00,meteohub,2013-09-07 05:11:00,
2013-09-07 01:16:00,63.1,48.6,17.73,ESE,105,0.0,0.0,59,0.00,,,0.00,meteohub,2013-09-07 05:16:00,
2013-09-07 01:21:00,63.1,48.6,17.73,ESE,105,0.0,0.0,59,0.00,,,0.00,meteohub,2013-09-07 05:21:00,
2013-09-07 01:26:00,63.0,48.9,17.73,ESE,105,0.0,0.0,60,0.00,,,0.00,meteohub,2013-09-07 05:26:00,
2013-09-07 01:32:00,62.8,48.7,17.73,ESE,105,0.0,0.0,60,0.00,,,0.00,meteohub,2013-09-07 05:32:00,
2013-09-07 01:37:00,62.6,48.9,17.73,ESE,105,0.0,0.0,61,0.00,,,0.00,meteohub,2013-09-07 05:37:00,
2013-09-07 01:42:00,62.6,48.9,17.73,ESE,105,0.0,0.0,61,0.00,,,0.00,meteohub,2013-09-07 05:42:00,
2013-09-07 01:47:00,62.6,49.5,17.73,ESE,105,0.0,0.0,62,0.00,,,0.00,meteohub,2013-09-07 05:47:00,
2013-09-07 01:52:00,62.6,49.5,17.73,ESE,105,0.0,0.0,62,0.00,,,0.00,meteohub,2013-09-07 05:52:00,
2013-09-07 01:57:00,62.4,49.6,17.73,ESE,105,0.0,0.0,63,0.00,,,0.00,meteohub,2013-09-07 05:57:00,
2013-09-07 02:02:00,62.2,49.5,17.73,ESE,105,0.0,0.0,63,0.00,,,0.00,meteohub,2013-09-07 06:02:00,
2013-09-07 02:07:00,62.1,49.8,17.73,ESE,105,0.0,0.0,64,0.00,,,0.00,meteohub,2013-09-07 06:07:00,
2013-09-07 02:12:00,61.9,49.6,17.73,ESE,105,0.0,0.0,64,0.00,,,0.00,meteohub,2013-09-07 06:12:00,
2013-09-07 02:17:00,61.7,49.5,17.73,ESE,105,0.0,0.0,64,0.00,,,0.00,meteohub,2013-09-07 06:17:00,
2013-09-07 02:22:00,61.7,49.8,17.73,ESE,105,0.0,0.0,65,0.00,,,0.00,meteohub,2013-09-07 06:22:00,
2013-09-07 02:27:00,61.5,49.6,17.73,ESE,105,0.0,0.0,65,0.00,,,0.00,meteohub,2013-09-07 06:27:00,
2013-09-07 02:32:00,61.3,49.8,17.73,ESE,105,0.0,0.0,66,0.00,,,0.00,meteohub,2013-09-07 06:32:00,
2013-09-07 02:37:00,61.2,49.6,17.73,ESE,105,0.0,0.0,66,0.00,,,0.00,meteohub,2013-09-07 06:37:00,
2013-09-07 02:42:00,61.2,50.2,17.73,ESE,105,0.0,0.0,67,0.00,,,0.00,meteohub,2013-09-07 06:42:00,
2013-09-07 02:48:00,61.2,50.2,17.73,ESE,105,0.0,0.0,67,0.00,,,0.00,meteohub,2013-09-07 06:48:00,
2013-09-07 02:53:00,61.0,50.4,17.73,ESE,105,0.0,0.0,68,0.00,,,0.00,meteohub,2013-09-07 06:53:00,
2013-09-07 02:58:00,60.8,50.2,17.73,ESE,105,0.0,0.0,68,0.00,,,0.00,meteohub,2013-09-07 06:58:00,
2013-09-07 03:03:00,60.6,50.4,17.73,ESE,105,0.0,0.0,69,0.00,,,0.00,meteohub,2013-09-07 07:03:00,
2013-09-07 03:08:00,60.6,50.4,17.73,ESE,105,0.0,0.0,69,0.00,,,0.00,meteohub,2013-09-07 07:08:00,
2013-09-07 03:13:00,60.4,50.5,17.73,ESE,105,0.0,0.0,70,0.00,,,0.00,meteohub,2013-09-07 07:13:00,
2013-09-07 03:18:00,60.3,50.4,17.73,ESE,105,0.0,0.0,70,0.00,,,0.00,meteohub,2013-09-07 07:18:00,
2013-09-07 03:23:00,60.1,50.2,17.73,ESE,105,0.0,0.0,70,0.00,,,0.00,meteohub,2013-09-07 07:23:00,
2013-09-07 03:29:00,60.1,50.7,17.73,ESE,105,0.0,0.0,71,0.00,,,0.00,meteohub,2013-09-07 07:29:00,
2013-09-07 03:34:00,59.9,50.5,17.73,ESE,105,0.0,0.0,71,0.00,,,0.00,meteohub,2013-09-07 07:34:00,
2013-09-07 03:39:00,59.9,50.9,17.73,ESE,105,0.0,0.0,72,0.00,,,0.00,meteohub,2013-09-07 07:39:00,
2013-09-07 03:44:00,59.9,50.9,17.73,ESE,105,0.0,0.0,72,0.00,,,0.00,meteohub,2013-09-07 07:44:00,
2013-09-07 03:49:00,59.7,50.7,17.73,ESE,105,0.0,0.0,72,0.00,,,0.00,meteohub,2013-09-07 07:49:00,
2013-09-07 03:54:00,59.7,50.7,17.73,ESE,105,0.0,0.0,72,0.00,,,0.00,meteohub,2013-09-07 07:54:00,
2013-09-07 03:59:00,59.7,50.7,17.73,ESE,105,0.0,0.0,72,0.00,,,0.00,meteohub,2013-09-07 07:59:00,
2013-09-07 04:04:00,59.5,50.9,17.73,ESE,105,0.0,0.0,73,0.00,,,0.00,meteohub,2013-09-07 08:04:00,
2013-09-07 04:09:00,59.4,50.7,17.73,ESE,105,0.0,0.0,73,0.00,,,0.00,meteohub,2013-09-07 08:09:00,
2013-09-07 04:14:00,59.4,50.7,17.73,ESE,105,0.0,0.0,73,0.00,,,0.00,meteohub,2013-09-07 08:14:00,
2013-09-07 04:19:00,59.2,50.5,17.73,ESE,105,0.0,0.0,73,0.00,,,0.00,meteohub,2013-09-07 08:19:00,
2013-09-07 04:25:00,59.2,50.9,17.73,ESE,105,0.0,0.0,74,0.00,,,0.00,meteohub,2013-09-07 08:25:00,
2013-09-07 04:30:00,59.0,50.7,17.73,ESE,105,0.0,0.0,74,0.00,,,0.00,meteohub,2013-09-07 08:30:00,
2013-09-07 04:35:00,59.0,50.7,17.73,ESE,105,0.0,0.0,74,0.00,,,0.00,meteohub,2013-09-07 08:35:00,
2013-09-07 04:40:00,58.8,50.9,17.73,ESE,105,0.0,0.0,75,0.00,,,0.00,meteohub,2013-09-07 08:40:00,
2013-09-07 04:45:00,58.8,50.9,17.73,ESE,105,0.0,0.0,75,0.00,,,0.00,meteohub,2013-09-07 08:45:00,
2013-09-07 04:50:00,58.6,51.1,17.73,ESE,105,0.0,0.0,76,0.00,,,0.00,meteohub,2013-09-07 08:50:00,
2013-09-07 04:55:00,58.6,51.1,17.73,ESE,105,0.0,0.0,76,0.00,,,0.00,meteohub,2013-09-07 08:55:00,
2013-09-07 05:00:00,58.5,50.9,17.73,ESE,105,0.0,0.0,76,0.00,,,0.00,meteohub,2013-09-07 09:00:00,
2013-09-07 05:05:00,58.5,50.9,17.73,ESE,105,0.0,0.0,76,0.00,,,0.00,meteohub,2013-09-07 09:05:00,
2013-09-07 05:10:00,58.5,51.3,17.73,ESE,105,0.0,0.0,77,0.00,,,0.00,meteohub,2013-09-07 09:10:00,
2013-09-07 05:15:00,58.3,51.1,17.73,ESE,105,0.0,0.0,77,0.00,,,0.00,meteohub,2013-09-07 09:15:00,